Showing default

LEMUR 2 EMERSONROSE, 63261

Orbit data source: Space-Track

LEMUR 2 EMERSONROSE, 63261 is a payload satellite owned by Spire (US) in SSO that was launched on Sat, 15 Mar 2025 UTC via an FALCON 9 launch vehicle from the Air Force Western Test Range (AFWTR). Payload-class satellites include a variety of spacecraft equipped with specific instruments for various scientific and technological missions. These include communications satellites like Starlink; space stations such as the ISS; scientific satellites like the Hubble; Earth observation satellites from companies like Planet Labs, Umbra, and HawkEye 360; GPS; miniature CubeSats for education and research; and military/defense satellites.

Loading next visibility...
Identifier
63261, 2025-052BD
Orbit
SSO
Country
Flag of USUS
Related business
Manufacturer
Spire/Glasgow
Mission
Operational Commercial Com/MetRO
Bus & Motor
CUBESAT 6U, Unknown motor
Mass
10 kg wet, 10 kg dry
Launch date (UTC)
2025-03-15 (1 year ago)
Launch vehicle
FALCON 9
Launch site
Air Force Western Test Range (AFWTR)
Object type
Payload
Rocket body
Debris
Shape & HBR
Box, 0.2 m
Radar Cross Section
0.080 m², Small (<0.1 m²)

Expand to show TLE details & history
Last TLE update: 10 hours ago

TLE from 10 hours ago
0 LEMUR 2 EMERSONROSE
1 63261U 25052BD  26121.02951616  .00004638  00000-0  39028-3 0  9990
2 63261  97.6940  14.9696 0001378 175.5231 184.6005 14.98726628 61670
Epoch: 2026-05-01T00:42Z
TLE epoch observation values (Epoch: 2026-05-01T00:42:30.196Z)
Latitude
0.00006°
Longitude
145.37614°
Altitude
574.837 km
Speed
7.573 km/s
True Right ascension
00h 59m 52s
True Declination
0° 00' 00"
Sunlit
Object was in daylight at epoch
Visualization orbit readout
Latitude
Unknown
Longitude
Unknown
Altitude
Unknown
Speed
Unknown
Apparent Right ascension
Unknown
Apparent Declination
Unknown
Sunlit
N/A
Visualization observer readout
Local Sidereal Time
18:10:32
Azimuth
Unknown
Elevation
Unknown
Doppler factor
Unknown
Orbital elements
Apogee altitude
568.793 km
Perigee altitude
566.879 km
Semi-major axis
6,945.973 km
Eccentricity
0.00014
Inclination
97.694°
RAAN
14.9696°
Arg. of periapsis
175.5231°
True anomaly
184.59923°
Mean anomaly
184.6005°
Eccentric anomaly
184.59987°
Mean motion
3.74924 °/min
Orbital period
96.02 mins
BSTAR
0.00039028
Loading maneuver chart data...
Computing Atmospheric mass density...
Loading historical data...
Loading historical data...
Loading historical data...
Loading historical data...
Loading historical data...
Loading historical data...
Loading historical data...

Documentation

Showing up to 5 results
|